#timestamp,LO_Frequency,Hit,StdDev 
1700298015.5,286047000.8,N
1700298035.3,286046998.6,N
1700298055.2,286046998.3,N
1700298075.0,286046997.3,N
1700298075.9,286046997.3,N
1700298095.8,286046997.2,N
1700298115.6,286046999.5,N
1700298135.4,286046998.9,N
1700298155.3,286046998.4,N
1700298175.1,286047001.0,N
1700298195.8,286047000.7,N
1700298215.7,286047000.6,N
1700298235.5,286047000.7,N
1700298255.4,286047001.2,N
1700298275.2,286047000.5,N
1700298295.0,286047001.0,N
1700298295.9,286047001.0,N
1700298315.8,286047000.3,N
1700298335.6,286047001.0,N
1700298355.4,286047000.0,N
1700298375.3,286047000.9,N
1700298395.1,286047000.5,N
1700298415.9,286046999.7,N
1700298435.7,286047002.3,N
1700298455.5,286047001.8,N
1700298475.4,286047002.2,N
1700298495.2,286047004.3,Y
1700298515.1,286047003.8,P
1700298516.0,286047003.8,N
1700298535.8,286047004.3,N
1700298555.6,286047001.7,N
1700298575.5,286047004.3,N
1700298595.3,286047002.1,N
1700298615.1,286047002.1,N
1700298635.9,286047002.8,N
1700298655.7,286047001.4,N
1700298675.6,286047003.8,N
1700298695.4,286047003.6,N
1700298715.2,286047003.0,N
1700298735.1,286047003.9,Y
1700298736.0,286047003.9,P
1700298755.8,286047001.2,N
1700298775.7,286047000.8,N
1700298795.5,286046999.3,N
1700298815.4,286046999.5,N
1700298835.2,286046999.5,N
1700298855.0,286046999.2,N
1700298855.9,286046999.2,N
1700298875.8,286046999.0,N
1700298895.6,286046999.0,N
1700298915.5,286046999.2,N
1700298935.3,286046996.6,N
1700298955.1,286046999.0,N
1700298975.9,286046998.9,N
1700298995.7,286047000.6,N
1700299015.6,286047000.3,N
1700299035.4,286046999.8,N
1700299055.2,286047000.1,N
1700299075.1,286046999.9,N
1700299076.0,286046999.9,N
1700299095.8,286046999.9,N
1700299115.6,286047002.1,N
1700299135.5,286047002.7,N
1700299155.3,286047002.5,N
1700299175.2,286047001.6,N
1700299195.9,286047001.9,N
1700299215.7,286047001.4,N
1700299235.6,286047002.2,N
1700299255.4,286047002.6,N
1700299275.2,286047000.5,N
1700299295.1,286047000.2,N
1700299296.0,286047000.2,N
1700299315.8,286047000.4,N
1700299335.7,286046999.7,N
1700299355.5,286047002.3,N
1700299375.3,286047000.2,N
1700299395.2,286047000.4,N
1700299415.9,286047001.2,N
1700299435.7,286046998.2,N
1700299455.6,286046999.1,N
1700299475.4,286046999.3,N
1700299495.2,286046998.3,N
1700299515.1,286046999.0,N
1700299516.0,286046999.0,N
1700299535.8,286046999.1,N
1700299555.7,286046996.6,N
1700299575.5,286046996.5,N
1700299595.3,286046999.6,N
1700299615.2,286046999.4,N
1700299635.0,286046996.8,N
1700299635.9,286046996.8,N
1700299655.8,286046996.5,N
1700299675.6,286046996.9,N
1700299695.4,286046999.2,N
1700299715.3,286046999.3,N
1700299735.1,286046998.2,N
1700299736.0,286046998.2,N
1700299755.8,286047001.2,N
1700299775.7,286046996.5,N
1700299795.5,286046998.9,N
1700299815.4,286046998.2,N
1700299835.2,286046998.4,N
1700299855.0,286046998.1,N
1700299855.9,286046998.1,N
1700299875.8,286046996.5,N
1700299895.6,286046999.2,N
1700299915.4,286046999.5,N
1700299935.3,286046997.3,N
1700299955.1,286046997.5,N
1700299975.9,286046997.6,N
1700299995.7,286046998.0,N
1700300015.5,286046995.3,Y
1700300035.4,286046999.1,P
1700300055.2,286046998.6,P
1700300075.0,286047000.6,N
1700300075.9,286047000.6,N
1700300095.8,286047000.1,N
1700300115.6,286047000.7,N
1700300135.5,286047000.3,N
1700300155.3,286047000.1,N
1700300175.1,286047002.3,N
1700300195.9,286047002.8,N
1700300215.7,286047001.1,N
1700300235.5,286046999.8,N
1700300255.4,286046999.9,N
1700300275.2,286047000.8,N
1700300295.1,286047000.2,N
1700300296.0,286047000.2,N
1700300315.8,286047000.3,N
1700300335.6,286046999.9,N
1700300355.5,286047001.2,N
1700300375.3,286047000.5,N
1700300395.1,286047000.1,N
1700300415.9,286047000.2,N
1700300435.7,286047002.8,N
1700300455.6,286047002.7,N
1700300475.4,286046999.7,N
1700300495.2,286047002.6,N
1700300515.1,286047002.8,N
1700300516.0,286047002.8,N
1700300535.8,286046999.9,N
1700300555.6,286047002.1,N
1700300575.2,286047000.1,N
1700300595.0,286047002.3,N
1700300595.9,286047002.3,N
1700300615.7,286047001.9,N
1700300635.6,286047000.0,N
1700300655.4,286047002.3,N
1700300675.3,286047000.1,N
1700300695.1,286047000.3,N
1700300696.0,286047000.3,N
1700300715.8,286047002.7,N
1700300735.7,286047000.2,N
1700300755.5,286047002.7,N
1700300775.4,286047002.3,N
1700300795.2,286046999.7,N
1700300815.0,286047002.6,N
1700300815.9,286047002.6,N
1700300835.8,286046999.7,N
1700300855.6,286047004.3,Y
1700300875.5,286047000.0,P
1700300925.3,286047001.2,E
1700300935.2,286046998.2,N
1700300955.1,286046998.1,P
1700300956.0,286046998.1,P
1700300975.8,286047001.0,Y
1700300995.6,286047002.2,P
1700301015.5,286046999.8,N
1700301035.3,286046999.7,N
1700301055.2,286047000.2,N
1700301075.0,286047000.5,N
1700301075.9,286047000.5,N
1700301095.7,286047000.0,N
1700301115.6,286047002.4,N
1700301135.4,286047000.0,N
1700301155.3,286046999.9,N
1700301175.1,286047000.1,N
1700301195.8,286047002.8,N
1700301215.7,286047002.2,N
1700301235.5,286047001.0,N
1700301255.4,286047000.8,N
1700301275.2,286047000.6,N
1700301295.0,286046998.2,N
1700301295.9,286046998.2,N
1700301315.8,286046998.7,N
1700301335.6,286046999.1,N
1700301355.5,286046998.1,N
1700301375.3,286047001.1,N
1700301395.1,286047000.2,N
1700301415.9,286047002.7,N
1700301435.7,286047001.5,N
1700301455.5,286047003.5,N
1700301475.4,286047004.2,N
1700301495.2,286047003.5,N
1700301515.0,286047003.9,N
1700301515.9,286047003.9,N
1700301535.8,286047004.4,N
1700301555.6,286047004.1,N
1700301575.5,286047005.5,N
1700301595.3,286047005.9,N
